East Milton, MA

6:14 AM EDT on July 27, 2017 (GMT -0400)
East Milton

Weather History for KMQE - July, 2013

Change the Weather History Date:

Thursday, July 25, 2013

  Actual Average (KOWD) Record (KOWD)
Temperature  
Mean Temperature 60 °F -  
Max Temperature 64 °F 79 °F 96 °F (2016)
Min Temperature 57 °F 57 °F 44 °F (2002)
Degree Days  
Heating Degree Days 4    
Growing Degree Days 10 (Base 50)    
Moisture  
Dew Point 53 °F    
Average Humidity 81    
Maximum Humidity 97    
Minimum Humidity 62    
Precipitation  
Precipitation 0.41 in - - ()
Sea Level Pressure  
Sea Level Pressure 30.07 in    
Wind  
Wind Speed 10 mph (NNE)    
Max Wind Speed 13 mph    
Max Gust Speed 24 mph    
Averages and records for this station are not official NWS values.
T = Trace of Precipitation, MM = Missing Value Source: NWS Daily Summary

Daily Weather History Graph

Daily Weather History Graph

Search for Another Location

Airport or City:

Trip Planner

Search our weather history database for the weather conditions in past years. The results will help you decide how hot, cold, wet, or windy it might be!

Date:

Astronomy

Jul. 25, 2013 Rise Set
Actual Time 5:30 AM EDT 8:10 PM EDT
Civil Twilight 4:58 AM EDT 8:43 PM EDT
Nautical Twilight 4:17 AM EDT 9:23 PM EDT
Astronomical Twilight 3:31 AM EDT 10:09 PM EDT
Moon 9:44 PM EDT (7/25) 9:01 AM EDT (7/25)
Length of Visible Light 15h 44m
Length of Day
14h 40m
Waning Gibbous, 88% of the Moon is Illuminated
Jul 25
Waning Gibbous
Jul 29
Last Quarter
Aug 6
New
Aug 14
First Quarter
Aug 20
Full

Hourly Weather History & Observations

Time (EDT) Temp. Dew Point Humidity Pressure Visibility Wind Dir Wind Speed Gust Speed Precip Events Conditions
12:54 AM 64.0 °F 52.0 °F 65% 29.98 in - NNW 10.4 mph 18.4 mph N/A   Unknown
1:54 AM 61.0 °F 48.9 °F 64% 29.99 in - North 11.5 mph 19.6 mph N/A   Unknown
2:54 AM 60.1 °F 46.9 °F 62% 29.99 in - NNW 11.5 mph 17.3 mph N/A   Unknown
3:54 AM 59.0 °F 48.0 °F 67% 30.01 in - North 6.9 mph - N/A   Unknown
4:54 AM 60.1 °F 48.9 °F 67% 30.01 in - NNE 6.9 mph - N/A   Unknown
5:54 AM 60.1 °F 50.0 °F 69% 30.03 in - NNE 10.4 mph - N/A   Unknown
6:54 AM 60.1 °F 50.0 °F 69% 30.04 in - NNE 9.2 mph - N/A   Unknown
7:54 AM 57.9 °F 52.0 °F 81% 30.06 in - NE 12.7 mph 21.9 mph N/A   Unknown
8:54 AM 57.9 °F 54.0 °F 87% 30.09 in - NE 10.4 mph 17.3 mph 0.01 in   Unknown
9:54 AM 59.0 °F 53.1 °F 81% 30.10 in - NE 9.2 mph 19.6 mph N/A   Unknown
10:54 AM 60.1 °F 54.0 °F 80% 30.10 in - NE 12.7 mph 20.7 mph N/A   Unknown
11:54 AM 61.0 °F 54.0 °F 78% 30.11 in - NNE 12.7 mph 24.2 mph N/A   Unknown
12:54 PM 61.0 °F 54.0 °F 78% 30.11 in - NNE 11.5 mph 18.4 mph N/A   Unknown
1:54 PM 60.1 °F 57.0 °F 90% 30.11 in - NNE 11.5 mph 18.4 mph 0.03 in   Unknown
2:54 PM 59.0 °F 55.9 °F 90% 30.11 in - NNE 8.1 mph 17.3 mph N/A   Unknown
3:54 PM 57.9 °F 55.9 °F 93% 30.11 in - NE 8.1 mph 18.4 mph 0.09 in   Unknown
4:54 PM 57.9 °F 55.9 °F 93% 30.11 in - North 6.9 mph - 0.21 in   Unknown
5:54 PM 57.9 °F 57.0 °F 97% 30.11 in - NNE 8.1 mph 16.1 mph 0.03 in   Unknown
6:54 PM 57.9 °F 55.9 °F 93% 30.11 in - NNE 9.2 mph - 0.03 in   Unknown
7:54 PM 57.9 °F 57.0 °F 97% 30.11 in - NNE 10.4 mph 17.3 mph 0.01 in   Unknown
8:54 PM 59.0 °F 57.0 °F 93% 30.11 in - NNE 9.2 mph 16.1 mph N/A   Unknown
9:54 PM 59.0 °F 57.0 °F 93% 30.10 in - NNE 11.5 mph - N/A   Unknown